Time,TemperatureF,DewpointF,PressureIn,WindDirection,WindDirectionDegrees,WindSpeedMPH,WindSpeedGustMPH,Humidity,HourlyPrecipIn,Conditions,Clouds,dailyrainin,SoftwareType,DateUTC
2013-01-17 00:02:00,42.6,22.3,30.41,ENE,63,19.0,32.0,31,0.00,,,0.00,meteohub,2013-01-17 08:02:00,
2013-01-17 00:07:00,42.6,22.3,30.40,NNE,32,20.0,32.0,31,0.00,,,0.00,meteohub,2013-01-17 08:07:00,
2013-01-17 00:13:00,42.8,22.3,30.40,ENE,58,20.0,35.0,31,0.00,,,0.00,meteohub,2013-01-17 08:13:00,
2013-01-17 00:18:00,42.6,22.3,30.40,NE,42,27.0,35.0,31,0.00,,,0.00,meteohub,2013-01-17 08:18:00,
2013-01-17 00:23:00,43.0,22.1,30.41,NE,51,18.0,35.0,31,0.00,,,0.00,meteohub,2013-01-17 08:23:00,
2013-01-17 00:28:00,42.3,22.1,30.41,ENE,78,25.0,33.0,31,0.00,,,0.00,meteohub,2013-01-17 08:28:00,
2013-01-17 00:33:00,42.3,22.1,30.41,NNE,19,20.0,33.0,31,0.00,,,0.00,meteohub,2013-01-17 08:33:00,
2013-01-17 00:38:00,42.4,21.9,30.41,ENE,63,25.0,32.0,31,0.00,,,0.00,meteohub,2013-01-17 08:38:00,
2013-01-17 00:44:00,42.4,21.9,30.41,ENE,74,19.0,30.0,31,0.00,,,0.00,meteohub,2013-01-17 08:44:00,
2013-01-17 00:49:00,42.6,21.9,30.41,NE,39,25.0,30.0,31,0.00,,,0.00,meteohub,2013-01-17 08:49:00,
2013-01-17 00:54:00,42.4,21.9,30.41,NE,46,20.0,30.0,31,0.00,,,0.00,meteohub,2013-01-17 08:54:00,
2013-01-17 01:00:00,42.6,21.9,30.41,NE,42,21.0,30.0,31,0.00,,,0.00,meteohub,2013-01-17 09:00:00,
2013-01-17 01:05:00,42.6,21.9,30.41,NE,53,25.0,28.0,31,0.00,,,0.00,meteohub,2013-01-17 09:05:00,
2013-01-17 01:10:00,42.4,21.9,30.41,ENE,68,20.0,29.0,31,0.00,,,0.00,meteohub,2013-01-17 09:10:00,
2013-01-17 01:15:00,42.4,21.9,30.41,ENE,63,21.0,29.0,31,0.00,,,0.00,meteohub,2013-01-17 09:15:00,
2013-01-17 01:20:00,42.3,21.7,30.41,NE,36,22.0,29.0,31,0.00,,,0.00,meteohub,2013-01-17 09:20:00,
2013-01-17 01:25:00,42.4,21.7,30.41,NE,38,13.0,30.0,31,0.00,,,0.00,meteohub,2013-01-17 09:25:00,
2013-01-17 01:30:00,42.3,21.7,30.41,NNE,18,18.0,30.0,31,0.00,,,0.00,meteohub,2013-01-17 09:30:00,
2013-01-17 01:35:00,42.3,21.7,30.41,ENE,63,16.0,30.0,31,0.00,,,0.00,meteohub,2013-01-17 09:35:00,
2013-01-17 01:41:00,42.4,21.7,30.41,NE,53,22.0,29.0,31,0.00,,,0.00,meteohub,2013-01-17 09:41:00,
2013-01-17 01:46:00,42.4,21.7,30.42,NNE,25,14.0,29.0,31,0.00,,,0.00,meteohub,2013-01-17 09:46:00,
2013-01-17 01:51:00,42.4,21.7,30.41,NE,53,18.0,29.0,31,0.00,,,0.00,meteohub,2013-01-17 09:51:00,
2013-01-17 01:56:00,42.4,21.7,30.41,NE,56,20.0,28.0,31,0.00,,,0.00,meteohub,2013-01-17 09:56:00,
2013-01-17 02:02:00,42.4,21.7,30.41,NNE,32,17.0,28.0,31,0.00,,,0.00,meteohub,2013-01-17 10:02:00,
2013-01-17 02:07:00,42.6,21.6,30.41,East,82,16.0,28.0,31,0.00,,,0.00,meteohub,2013-01-17 10:07:00,
2013-01-17 02:12:00,42.4,21.6,30.41,NE,40,21.0,28.0,31,0.00,,,0.00,meteohub,2013-01-17 10:12:00,
2013-01-17 02:18:00,42.4,21.6,30.40,ENE,74,20.0,28.0,31,0.00,,,0.00,meteohub,2013-01-17 10:18:00,
2013-01-17 02:23:00,42.4,21.6,30.40,NE,50,24.0,28.0,31,0.00,,,0.00,meteohub,2013-01-17 10:23:00,
2013-01-17 02:29:00,42.4,21.6,30.40,NE,37,14.0,28.0,31,0.00,,,0.00,meteohub,2013-01-17 10:29:00,
2013-01-17 02:34:00,42.4,21.6,30.40,NE,53,20.0,28.0,31,0.00,,,0.00,meteohub,2013-01-17 10:34:00,
2013-01-17 02:39:00,42.6,21.6,30.40,NNE,20,19.0,28.0,31,0.00,,,0.00,meteohub,2013-01-17 10:39:00,
2013-01-17 02:45:00,42.6,21.6,30.40,NE,38,22.0,28.0,31,0.00,,,0.00,meteohub,2013-01-17 10:45:00,
2013-01-17 02:50:00,42.6,21.6,30.40,ENE,74,18.0,28.0,31,0.00,,,0.00,meteohub,2013-01-17 10:50:00,
2013-01-17 02:55:00,42.8,21.6,30.39,NNE,22,21.0,28.0,31,0.00,,,0.00,meteohub,2013-01-17 10:55:00,
2013-01-17 03:01:00,42.6,21.6,30.39,NE,40,20.0,28.0,31,0.00,,,0.00,meteohub,2013-01-17 11:01:00,
2013-01-17 03:06:00,42.3,21.6,30.39,ENE,57,26.0,28.0,31,0.00,,,0.00,meteohub,2013-01-17 11:06:00,
2013-01-17 03:11:00,42.4,21.6,30.39,NNE,19,23.0,28.0,31,0.00,,,0.00,meteohub,2013-01-17 11:11:00,
2013-01-17 03:17:00,42.4,21.6,30.39,NNW,330,13.0,28.0,31,0.00,,,0.00,meteohub,2013-01-17 11:17:00,
2013-01-17 03:22:00,42.3,21.6,30.39,ENE,58,20.0,28.0,31,0.00,,,0.00,meteohub,2013-01-17 11:22:00,
2013-01-17 03:27:00,42.4,21.6,30.38,NNE,30,22.0,30.0,31,0.00,,,0.00,meteohub,2013-01-17 11:27:00,
2013-01-17 03:32:00,42.8,21.6,30.39,NE,47,17.0,30.0,31,0.00,,,0.00,meteohub,2013-01-17 11:32:00,
2013-01-17 03:38:00,43.2,21.6,30.39,East,98,22.0,30.0,31,0.00,,,0.00,meteohub,2013-01-17 11:38:00,
2013-01-17 03:43:00,43.0,21.4,30.39,ENE,57,15.0,30.0,31,0.00,,,0.00,meteohub,2013-01-17 11:43:00,
2013-01-17 03:48:00,42.4,21.4,30.39,NE,45,21.0,30.0,31,0.00,,,0.00,meteohub,2013-01-17 11:48:00,
2013-01-17 03:53:00,42.4,21.6,30.39,ENE,67,24.0,30.0,31,0.00,,,0.00,meteohub,2013-01-17 11:53:00,
2013-01-17 03:58:00,42.3,21.6,30.39,ENE,71,18.0,27.0,31,0.00,,,0.00,meteohub,2013-01-17 11:58:00,
2013-01-17 04:04:00,42.3,21.6,30.39,NNE,33,19.0,27.0,31,0.00,,,0.00,meteohub,2013-01-17 12:04:00,
2013-01-17 04:09:00,42.3,21.7,30.39,ENE,74,20.0,27.0,31,0.00,,,0.00,meteohub,2013-01-17 12:09:00,
2013-01-17 04:14:00,42.4,21.7,30.38,NE,51,19.0,27.0,31,0.00,,,0.00,meteohub,2013-01-17 12:14:00,
2013-01-17 04:19:00,42.3,21.9,30.38,NE,37,13.0,26.0,31,0.00,,,0.00,meteohub,2013-01-17 12:19:00,
2013-01-17 04:25:00,42.1,21.9,30.38,NNE,29,19.0,27.0,31,0.00,,,0.00,meteohub,2013-01-17 12:25:00,
2013-01-17 04:30:00,41.9,22.1,30.38,NE,54,21.0,24.0,31,0.00,,,0.00,meteohub,2013-01-17 12:30:00,
2013-01-17 04:35:00,42.3,22.1,30.38,NE,56,15.0,26.0,31,0.00,,,0.00,meteohub,2013-01-17 12:35:00,
2013-01-17 04:41:00,42.3,22.1,30.38,NE,45,20.0,28.0,31,0.00,,,0.00,meteohub,2013-01-17 12:41:00,
2013-01-17 04:46:00,42.1,22.1,30.38,ENE,58,18.0,28.0,31,0.00,,,0.00,meteohub,2013-01-17 12:46:00,
2013-01-17 04:51:00,41.7,22.1,30.38,NNE,33,23.0,28.0,31,0.00,,,0.00,meteohub,2013-01-17 12:51:00,
2013-01-17 04:57:00,41.2,22.1,30.38,ENE,68,22.0,27.0,31,0.00,,,0.00,meteohub,2013-01-17 12:57:00,
2013-01-17 05:02:00,40.6,22.3,30.38,ENE,63,20.0,27.0,30,0.00,,,0.00,meteohub,2013-01-17 13:02:00,
2013-01-17 05:07:00,40.6,22.6,30.38,ENE,63,20.0,26.0,30,0.00,,,0.00,meteohub,2013-01-17 13:07:00,
2013-01-17 05:12:00,40.6,22.8,30.38,North,-999,-999.0,25.0,31,0.00,,,0.00,meteohub,2013-01-17 13:12:00,
2013-01-17 05:18:00,40.6,22.5,30.38,North,-999,-999.0,20.0,31,0.00,,,0.00,meteohub,2013-01-17 13:18:00,
2013-01-17 07:33:00,42.3,21.2,30.38,North,-999,-999.0,-999.0,29,-99.99,,,0.00,meteohub,2013-01-17 15:33:00,
2013-01-17 07:38:00,42.6,21.4,30.38,North,-999,-999.0,-999.0,30,0.00,,,0.00,meteohub,2013-01-17 15:38:00,
2013-01-17 07:43:00,43.0,21.2,30.39,North,9,19.0,-999.0,30,0.00,,,0.00,meteohub,2013-01-17 15:43:00,
2013-01-17 07:49:00,43.2,21.2,30.38,NE,41,24.0,27.0,30,0.00,,,0.00,meteohub,2013-01-17 15:49:00,
2013-01-17 07:54:00,43.3,21.0,30.39,NE,42,22.0,30.0,30,0.00,,,0.00,meteohub,2013-01-17 15:54:00,
2013-01-17 07:59:00,43.5,21.0,30.39,NE,54,23.0,31.0,30,0.00,,,0.00,meteohub,2013-01-17 15:59:00,
2013-01-17 08:04:00,43.9,21.0,30.39,NNE,32,23.0,33.0,30,0.00,,,0.00,meteohub,2013-01-17 16:04:00,
2013-01-17 08:10:00,44.1,21.0,30.40,North,358,22.0,37.0,30,0.00,,,0.00,meteohub,2013-01-17 16:10:00,
2013-01-17 08:15:00,43.9,21.0,30.40,NE,39,19.0,36.0,30,0.00,,,0.00,meteohub,2013-01-17 16:15:00,
2013-01-17 08:20:00,43.7,21.0,30.41,NE,37,21.0,36.0,30,0.00,,,0.00,meteohub,2013-01-17 16:20:00,
2013-01-17 08:25:00,43.5,21.0,30.41,NNE,16,23.0,36.0,30,0.00,,,0.00,meteohub,2013-01-17 16:25:00,
2013-01-17 08:31:00,43.7,21.0,30.42,NE,43,27.0,30.0,30,0.00,,,0.00,meteohub,2013-01-17 16:31:00,
2013-01-17 08:36:00,43.7,20.8,30.42,NE,44,23.0,30.0,30,0.00,,,0.00,meteohub,2013-01-17 16:36:00,
2013-01-17 08:41:00,43.9,20.8,30.42,NE,56,22.0,31.0,30,0.00,,,0.00,meteohub,2013-01-17 16:41:00,
2013-01-17 08:47:00,44.1,20.8,30.42,ENE,72,19.0,31.0,30,0.00,,,0.00,meteohub,2013-01-17 16:47:00,
2013-01-17 08:52:00,44.4,20.8,30.42,ENE,61,19.0,37.0,30,0.00,,,0.00,meteohub,2013-01-17 16:52:00,
2013-01-17 08:57:00,44.8,20.8,30.42,NE,37,24.0,37.0,30,0.00,,,0.00,meteohub,2013-01-17 16:57:00,
2013-01-17 09:02:00,45.0,20.8,30.43,NE,53,25.0,32.0,30,0.00,,,0.00,meteohub,2013-01-17 17:02:00,
2013-01-17 09:07:00,45.1,20.8,30.43,ENE,57,22.0,32.0,30,0.00,,,0.00,meteohub,2013-01-17 17:07:00,
2013-01-17 09:12:00,45.1,20.8,30.43,NNE,28,22.0,34.0,30,0.00,,,0.00,meteohub,2013-01-17 17:12:00,
2013-01-17 09:17:00,45.1,20.8,30.43,NE,37,21.0,34.0,30,0.00,,,0.00,meteohub,2013-01-17 17:17:00,
2013-01-17 09:22:00,45.3,20.8,30.43,NE,50,21.0,32.0,30,0.00,,,0.00,meteohub,2013-01-17 17:22:00,
2013-01-17 09:28:00,45.3,21.6,30.43,ENE,63,23.0,35.0,31,0.00,,,0.00,meteohub,2013-01-17 17:28:00,
2013-01-17 09:33:00,45.7,20.8,30.43,NE,50,24.0,35.0,30,0.00,,,0.00,meteohub,2013-01-17 17:33:00,
2013-01-17 09:38:00,45.9,21.6,30.43,NNE,27,25.0,35.0,31,0.00,,,0.00,meteohub,2013-01-17 17:38:00,
2013-01-17 09:44:00,45.9,21.6,30.43,NNE,33,21.0,33.0,31,0.00,,,0.00,meteohub,2013-01-17 17:44:00,
2013-01-17 09:49:00,46.2,21.6,30.42,NNE,25,33.0,38.0,31,0.00,,,0.00,meteohub,2013-01-17 17:49:00,
2013-01-17 09:54:00,46.2,21.6,30.43,NE,40,22.0,38.0,31,0.00,,,0.00,meteohub,2013-01-17 17:54:00,
2013-01-17 09:59:00,46.6,21.6,30.42,NNE,23,27.0,35.0,31,0.00,,,0.00,meteohub,2013-01-17 17:59:00,
2013-01-17 10:05:00,46.8,21.6,30.42,NNE,27,24.0,35.0,31,0.00,,,0.00,meteohub,2013-01-17 18:05:00,
2013-01-17 10:10:00,46.8,21.6,30.42,NNE,25,19.0,35.0,31,0.00,,,0.00,meteohub,2013-01-17 18:10:00,
2013-01-17 10:15:00,46.8,21.6,30.42,NE,37,25.0,36.0,31,0.00,,,0.00,meteohub,2013-01-17 18:15:00,
2013-01-17 10:20:00,46.9,21.7,30.41,NE,53,23.0,36.0,31,0.00,,,0.00,meteohub,2013-01-17 18:20:00,
2013-01-17 10:25:00,47.1,21.7,30.41,NE,38,27.0,33.0,31,0.00,,,0.00,meteohub,2013-01-17 18:25:00,
2013-01-17 10:30:00,47.3,21.7,30.41,ENE,60,25.0,33.0,31,0.00,,,0.00,meteohub,2013-01-17 18:30:00,
2013-01-17 10:35:00,47.5,21.7,30.40,NE,45,24.0,33.0,31,0.00,,,0.00,meteohub,2013-01-17 18:35:00,
2013-01-17 10:40:00,47.5,21.7,30.40,NNE,27,27.0,35.0,31,0.00,,,0.00,meteohub,2013-01-17 18:40:00,
2013-01-17 10:45:00,47.8,21.7,30.40,NNE,27,19.0,35.0,31,0.00,,,0.00,meteohub,2013-01-17 18:45:00,
2013-01-17 10:51:00,47.8,21.7,30.40,ENE,58,18.0,33.0,31,0.00,,,0.00,meteohub,2013-01-17 18:51:00,
2013-01-17 10:56:00,48.0,21.7,30.40,NE,44,20.0,34.0,31,0.00,,,0.00,meteohub,2013-01-17 18:56:00,
2013-01-17 11:01:00,48.0,21.7,30.39,NE,43,24.0,34.0,31,0.00,,,0.00,meteohub,2013-01-17 19:01:00,
2013-01-17 11:06:00,48.0,21.7,30.39,NNE,24,16.0,32.0,31,0.00,,,0.00,meteohub,2013-01-17 19:06:00,
2013-01-17 11:13:00,48.0,21.9,30.39,ENE,65,18.0,32.0,31,0.00,,,0.00,meteohub,2013-01-17 19:13:00,
2013-01-17 11:18:00,48.4,21.9,30.39,NE,44,22.0,32.0,31,0.00,,,0.00,meteohub,2013-01-17 19:18:00,
2013-01-17 11:24:00,48.7,21.9,30.38,NE,37,26.0,32.0,31,0.00,,,0.00,meteohub,2013-01-17 19:24:00,
2013-01-17 11:29:00,48.6,21.9,30.38,NNE,15,18.0,30.0,31,0.00,,,0.00,meteohub,2013-01-17 19:29:00,
2013-01-17 11:34:00,48.6,21.9,30.37,ENE,63,24.0,31.0,31,0.00,,,0.00,meteohub,2013-01-17 19:34:00,
2013-01-17 11:40:00,48.4,21.9,30.37,NE,39,23.0,31.0,31,0.00,,,0.00,meteohub,2013-01-17 19:40:00,
2013-01-17 11:46:00,48.2,22.1,30.36,NE,47,25.0,36.0,31,0.00,,,0.00,meteohub,2013-01-17 19:46:00,
2013-01-17 11:51:00,48.6,22.1,30.36,NE,50,22.0,36.0,31,0.00,,,0.00,meteohub,2013-01-17 19:51:00,
2013-01-17 11:57:00,48.0,22.1,30.36,NE,51,26.0,36.0,31,0.00,,,0.00,meteohub,2013-01-17 19:57:00,
2013-01-17 12:02:00,48.0,22.3,30.35,NE,49,28.0,35.0,31,0.00,,,0.00,meteohub,2013-01-17 20:02:00,
2013-01-17 12:07:00,48.2,22.3,30.35,ENE,60,21.0,35.0,31,0.00,,,0.00,meteohub,2013-01-17 20:07:00,
2013-01-17 12:12:00,48.6,22.3,30.35,NE,41,24.0,33.0,31,0.00,,,0.00,meteohub,2013-01-17 20:12:00,
2013-01-17 12:17:00,48.7,22.3,30.35,NNE,27,25.0,33.0,31,0.00,,,0.00,meteohub,2013-01-17 20:17:00,
2013-01-17 12:22:00,48.9,22.3,30.35,ENE,63,19.0,32.0,31,0.00,,,0.00,meteohub,2013-01-17 20:22:00,
2013-01-17 12:27:00,48.9,22.3,30.35,NE,46,26.0,30.0,31,0.00,,,0.00,meteohub,2013-01-17 20:27:00,
2013-01-17 12:32:00,48.9,22.5,30.35,NNE,20,19.0,29.0,31,0.00,,,0.00,meteohub,2013-01-17 20:32:00,
2013-01-17 12:37:00,48.9,22.5,30.35,East,83,25.0,29.0,31,0.00,,,0.00,meteohub,2013-01-17 20:37:00,
2013-01-17 12:42:00,49.1,22.5,30.35,ENE,68,21.0,29.0,31,0.00,,,0.00,meteohub,2013-01-17 20:42:00,
2013-01-17 12:47:00,48.7,22.5,30.35,ENE,72,20.0,31.0,31,0.00,,,0.00,meteohub,2013-01-17 20:47:00,
2013-01-17 12:52:00,48.9,22.5,30.34,NE,40,24.0,31.0,31,0.00,,,0.00,meteohub,2013-01-17 20:52:00,
2013-01-17 12:57:00,48.9,22.5,30.33,NNE,27,19.0,31.0,31,0.00,,,0.00,meteohub,2013-01-17 20:57:00,
2013-01-17 13:02:00,48.7,22.6,30.33,NE,49,23.0,31.0,31,0.00,,,0.00,meteohub,2013-01-17 21:02:00,
2013-01-17 13:07:00,48.9,22.6,30.33,NE,54,25.0,31.0,31,0.00,,,0.00,meteohub,2013-01-17 21:07:00,
2013-01-17 13:12:00,48.9,22.6,30.33,NE,49,22.0,29.0,31,0.00,,,0.00,meteohub,2013-01-17 21:12:00,
2013-01-17 13:18:00,49.1,22.6,30.33,NE,53,28.0,29.0,31,0.00,,,0.00,meteohub,2013-01-17 21:18:00,
2013-01-17 13:23:00,48.9,22.8,30.33,NE,37,14.0,29.0,31,0.00,,,0.00,meteohub,2013-01-17 21:23:00,
2013-01-17 13:29:00,49.1,22.8,30.33,NE,44,24.0,29.0,31,0.00,,,0.00,meteohub,2013-01-17 21:29:00,
2013-01-17 13:34:00,49.1,22.8,30.32,NE,34,23.0,29.0,31,0.00,,,0.00,meteohub,2013-01-17 21:34:00,
2013-01-17 13:39:00,49.3,22.8,30.32,NNE,13,16.0,28.0,31,0.00,,,0.00,meteohub,2013-01-17 21:39:00,
2013-01-17 13:45:00,49.3,23.0,30.32,ENE,58,23.0,30.0,31,0.00,,,0.00,meteohub,2013-01-17 21:45:00,
2013-01-17 13:50:00,49.1,23.0,30.32,NE,34,22.0,30.0,31,0.00,,,0.00,meteohub,2013-01-17 21:50:00,
2013-01-17 13:55:00,48.9,23.0,30.32,NE,35,26.0,29.0,31,0.00,,,0.00,meteohub,2013-01-17 21:55:00,
2013-01-17 14:01:00,48.7,23.2,30.32,NE,43,17.0,29.0,31,0.00,,,0.00,meteohub,2013-01-17 22:01:00,
2013-01-17 14:06:00,48.7,23.2,30.32,NNE,25,22.0,29.0,31,0.00,,,0.00,meteohub,2013-01-17 22:06:00,
2013-01-17 14:11:00,48.9,23.2,30.32,ESE,107,18.0,29.0,31,0.00,,,0.00,meteohub,2013-01-17 22:11:00,
2013-01-17 14:16:00,48.9,24.1,30.32,NNE,18,16.0,29.0,32,0.00,,,0.00,meteohub,2013-01-17 22:16:00,
2013-01-17 14:21:00,48.9,24.1,30.32,NNE,12,18.0,27.0,32,0.00,,,0.00,meteohub,2013-01-17 22:21:00,
2013-01-17 14:27:00,48.7,24.3,30.32,NE,56,24.0,30.0,32,0.00,,,0.00,meteohub,2013-01-17 22:27:00,
2013-01-17 14:32:00,48.7,24.3,30.32,ENE,61,22.0,30.0,32,0.00,,,0.00,meteohub,2013-01-17 22:32:00,
2013-01-17 14:37:00,48.6,24.3,30.32,NE,47,24.0,30.0,32,0.00,,,0.00,meteohub,2013-01-17 22:37:00,
2013-01-17 14:42:00,48.4,24.4,30.31,NNE,27,19.0,29.0,32,0.00,,,0.00,meteohub,2013-01-17 22:42:00,
2013-01-17 14:47:00,48.4,24.6,30.32,ENE,60,17.0,29.0,32,0.00,,,0.00,meteohub,2013-01-17 22:47:00,
2013-01-17 14:52:00,48.2,24.6,30.31,ENE,61,22.0,30.0,32,0.00,,,0.00,meteohub,2013-01-17 22:52:00,
2013-01-17 14:57:00,48.2,23.9,30.32,NE,49,22.0,30.0,31,0.00,,,0.00,meteohub,2013-01-17 22:57:00,
2013-01-17 15:03:00,48.0,24.8,30.32,NE,56,22.0,29.0,32,0.00,,,0.00,meteohub,2013-01-17 23:03:00,
2013-01-17 15:08:00,47.8,24.1,30.32,NNE,33,20.0,29.0,31,0.00,,,0.00,meteohub,2013-01-17 23:08:00,
2013-01-17 15:13:00,47.8,25.0,30.32,NNE,30,18.0,29.0,32,0.00,,,0.00,meteohub,2013-01-17 23:13:00,
2013-01-17 15:18:00,47.8,24.1,30.32,ENE,63,17.0,29.0,31,0.00,,,0.00,meteohub,2013-01-17 23:18:00,
2013-01-17 15:24:00,47.7,24.3,30.32,North,4,18.0,27.0,31,0.00,,,0.00,meteohub,2013-01-17 23:24:00,
2013-01-17 15:30:00,47.5,24.3,30.32,ENE,60,21.0,27.0,31,0.00,,,0.00,meteohub,2013-01-17 23:30:00,
2013-01-17 15:35:00,47.5,24.3,30.32,NNE,27,23.0,29.0,31,0.00,,,0.00,meteohub,2013-01-17 23:35:00,
2013-01-17 15:40:00,47.3,24.4,30.32,NE,38,20.0,29.0,31,0.00,,,0.00,meteohub,2013-01-17 23:40:00,
2013-01-17 15:45:00,47.1,24.6,30.32,NE,36,22.0,29.0,31,0.00,,,0.00,meteohub,2013-01-17 23:45:00,
2013-01-17 15:51:00,46.8,24.6,30.32,NE,56,23.0,28.0,31,0.00,,,0.00,meteohub,2013-01-17 23:51:00,
2013-01-17 15:56:00,46.6,24.8,30.32,NNE,24,16.0,28.0,31,0.00,,,0.00,meteohub,2013-01-17 23:56:00,
2013-01-17 16:01:00,46.4,24.8,30.32,East,86,18.0,26.0,31,0.00,,,0.00,meteohub,2013-01-18 00:01:00,
2013-01-17 16:06:00,46.2,25.0,30.32,NE,44,17.0,26.0,31,0.00,,,0.00,meteohub,2013-01-18 00:06:00,
2013-01-17 16:12:00,46.0,25.0,30.32,ENE,61,17.0,27.0,31,0.00,,,0.00,meteohub,2013-01-18 00:12:00,
2013-01-17 16:17:00,45.9,25.2,30.32,ENE,75,18.0,27.0,31,0.00,,,0.00,meteohub,2013-01-18 00:17:00,
2013-01-17 16:22:00,45.9,25.3,30.32,NE,36,15.0,27.0,31,0.00,,,0.00,meteohub,2013-01-18 00:22:00,
2013-01-17 16:27:00,45.7,25.3,30.32,NE,49,19.0,28.0,31,0.00,,,0.00,meteohub,2013-01-18 00:27:00,
2013-01-17 16:32:00,45.5,25.5,30.32,NE,40,18.0,28.0,31,0.00,,,0.00,meteohub,2013-01-18 00:32:00,
2013-01-17 16:37:00,45.3,25.5,30.32,NE,39,17.0,27.0,31,0.00,,,0.00,meteohub,2013-01-18 00:37:00,
2013-01-17 16:42:00,45.0,25.7,30.32,NE,40,16.0,27.0,31,0.00,,,0.00,meteohub,2013-01-18 00:42:00,
2013-01-17 16:47:00,45.0,25.7,30.32,NNE,31,18.0,26.0,31,0.00,,,0.00,meteohub,2013-01-18 00:47:00,
2013-01-17 16:52:00,44.8,25.9,30.32,NNE,26,17.0,25.0,31,0.00,,,0.00,meteohub,2013-01-18 00:52:00,
2013-01-17 16:57:00,44.8,25.9,30.32,NE,44,15.0,27.0,31,0.00,,,0.00,meteohub,2013-01-18 00:57:00,
2013-01-17 17:02:00,44.4,25.9,30.32,NE,39,22.0,27.0,31,0.00,,,0.00,meteohub,2013-01-18 01:02:00,
2013-01-17 17:08:00,44.2,25.9,30.32,NNE,26,20.0,27.0,31,0.00,,,0.00,meteohub,2013-01-18 01:08:00,
2013-01-17 17:13:00,44.1,25.9,30.33,NNE,16,18.0,26.0,31,0.00,,,0.00,meteohub,2013-01-18 01:13:00,
2013-01-17 17:18:00,44.1,25.9,30.33,NE,49,17.0,26.0,31,0.00,,,0.00,meteohub,2013-01-18 01:18:00,
2013-01-17 17:23:00,44.1,25.9,30.32,NE,36,18.0,25.0,31,0.00,,,0.00,meteohub,2013-01-18 01:23:00,
2013-01-17 17:28:00,43.9,25.9,30.32,NNE,31,18.0,27.0,31,0.00,,,0.00,meteohub,2013-01-18 01:28:00,
2013-01-17 17:33:00,43.5,25.9,30.33,NE,34,18.0,27.0,31,0.00,,,0.00,meteohub,2013-01-18 01:33:00,
2013-01-17 17:38:00,43.5,25.9,30.33,ENE,63,19.0,27.0,31,0.00,,,0.00,meteohub,2013-01-18 01:38:00,
2013-01-17 17:43:00,43.7,25.9,30.33,NE,46,15.0,27.0,31,0.00,,,0.00,meteohub,2013-01-18 01:43:00,
2013-01-17 17:48:00,43.9,25.9,30.33,NNE,25,18.0,27.0,31,0.00,,,0.00,meteohub,2013-01-18 01:48:00,
2013-01-17 17:53:00,43.9,25.7,30.33,ENE,57,16.0,27.0,31,0.00,,,0.00,meteohub,2013-01-18 01:53:00,
2013-01-17 17:59:00,43.9,25.7,30.33,ENE,58,18.0,27.0,31,0.00,,,0.00,meteohub,2013-01-18 01:59:00,
2013-01-17 18:04:00,43.5,25.7,30.33,NE,50,20.0,26.0,31,0.00,,,0.00,meteohub,2013-01-18 02:04:00,
2013-01-17 18:09:00,43.5,25.7,30.33,NNE,32,22.0,28.0,31,0.00,,,0.00,meteohub,2013-01-18 02:09:00,
2013-01-17 18:14:00,43.7,25.7,30.34,NE,53,20.0,28.0,31,0.00,,,0.00,meteohub,2013-01-18 02:14:00,
2013-01-17 18:19:00,43.7,25.0,30.34,NE,39,17.0,28.0,30,0.00,,,0.00,meteohub,2013-01-18 02:19:00,
2013-01-17 18:24:00,43.9,25.0,30.34,NE,56,17.0,28.0,30,0.00,,,0.00,meteohub,2013-01-18 02:24:00,
2013-01-17 18:29:00,43.9,24.8,30.34,NE,37,19.0,28.0,30,0.00,,,0.00,meteohub,2013-01-18 02:29:00,
2013-01-17 18:35:00,43.9,24.8,30.34,NE,56,19.0,28.0,30,0.00,,,0.00,meteohub,2013-01-18 02:35:00,
2013-01-17 18:39:00,43.9,24.8,30.35,ENE,64,18.0,25.0,30,0.00,,,0.00,meteohub,2013-01-18 02:39:00,
2013-01-17 18:45:00,43.9,24.8,30.35,ENE,60,17.0,25.0,30,0.00,,,0.00,meteohub,2013-01-18 02:45:00,
2013-01-17 18:50:00,44.1,24.8,30.34,NE,43,19.0,25.0,30,0.00,,,0.00,meteohub,2013-01-18 02:50:00,
2013-01-17 18:55:00,43.7,24.8,30.34,NE,43,21.0,27.0,30,0.00,,,0.00,meteohub,2013-01-18 02:55:00,
2013-01-17 19:00:00,43.7,24.8,30.35,NNE,33,15.0,27.0,30,0.00,,,0.00,meteohub,2013-01-18 03:00:00,
2013-01-17 19:05:00,43.9,24.6,30.34,NE,43,19.0,27.0,30,0.00,,,0.00,meteohub,2013-01-18 03:05:00,
2013-01-17 19:10:00,43.5,24.6,30.35,NE,56,15.0,25.0,30,0.00,,,0.00,meteohub,2013-01-18 03:10:00,
2013-01-17 19:15:00,43.5,24.6,30.34,NNE,29,14.0,25.0,30,0.00,,,0.00,meteohub,2013-01-18 03:15:00,
2013-01-17 19:21:00,43.5,24.6,30.35,NNE,33,13.0,25.0,30,0.00,,,0.00,meteohub,2013-01-18 03:21:00,
2013-01-17 19:26:00,43.5,24.6,30.35,NE,51,19.0,25.0,30,0.00,,,0.00,meteohub,2013-01-18 03:26:00,
2013-01-17 19:32:00,43.7,24.4,30.35,NE,53,19.0,25.0,30,0.00,,,0.00,meteohub,2013-01-18 03:32:00,
2013-01-17 19:37:00,43.9,24.4,30.35,NE,56,15.0,23.0,30,0.00,,,0.00,meteohub,2013-01-18 03:37:00,
2013-01-17 19:42:00,43.9,24.3,30.35,NE,37,16.0,23.0,30,0.00,,,0.00,meteohub,2013-01-18 03:42:00,
2013-01-17 19:47:00,43.9,24.3,30.35,NNE,22,13.0,23.0,30,0.00,,,0.00,meteohub,2013-01-18 03:47:00,
2013-01-17 19:52:00,43.9,24.3,30.35,NNE,27,14.0,23.0,30,0.00,,,0.00,meteohub,2013-01-18 03:52:00,
2013-01-17 19:57:00,44.1,24.3,30.35,ENE,67,16.0,23.0,30,0.00,,,0.00,meteohub,2013-01-18 03:57:00,
2013-01-17 20:02:00,44.1,24.3,30.35,NE,54,19.0,24.0,30,0.00,,,0.00,meteohub,2013-01-18 04:02:00,
2013-01-17 20:07:00,44.1,24.3,30.35,NNE,27,15.0,24.0,30,0.00,,,0.00,meteohub,2013-01-18 04:07:00,
2013-01-17 20:13:00,43.9,24.1,30.35,ENE,71,13.0,24.0,30,0.00,,,0.00,meteohub,2013-01-18 04:13:00,
2013-01-17 20:18:00,43.9,24.1,30.35,NE,36,14.0,22.0,30,0.00,,,0.00,meteohub,2013-01-18 04:18:00,
2013-01-17 20:24:00,44.1,24.1,30.36,NE,56,13.0,22.0,30,0.00,,,0.00,meteohub,2013-01-18 04:24:00,
2013-01-17 20:29:00,44.1,24.1,30.36,NNE,28,10.0,22.0,30,0.00,,,0.00,meteohub,2013-01-18 04:29:00,
2013-01-17 20:34:00,44.1,24.1,30.35,NNE,19,13.0,22.0,30,0.00,,,0.00,meteohub,2013-01-18 04:34:00,
2013-01-17 20:39:00,43.9,24.1,30.35,ENE,63,16.0,22.0,30,0.00,,,0.00,meteohub,2013-01-18 04:39:00,
2013-01-17 20:44:00,43.9,24.1,30.35,ENE,68,12.0,22.0,30,0.00,,,0.00,meteohub,2013-01-18 04:44:00,
2013-01-17 20:49:00,43.7,24.1,30.35,NE,39,17.0,20.0,30,0.00,,,0.00,meteohub,2013-01-18 04:49:00,
2013-01-17 20:55:00,43.9,24.1,30.36,NE,49,11.0,22.0,30,0.00,,,0.00,meteohub,2013-01-18 04:55:00,
2013-01-17 21:01:00,44.1,24.1,30.35,ENE,63,17.0,24.0,30,0.00,,,0.00,meteohub,2013-01-18 05:01:00,
2013-01-17 21:02:00,44.1,23.9,30.35,NNE,27,12.0,24.0,30,0.00,,,0.00,meteohub,2013-01-18 05:02:00,
2013-01-17 21:08:00,44.2,23.9,30.35,NE,40,15.0,24.0,30,0.00,,,0.00,meteohub,2013-01-18 05:08:00,
2013-01-17 21:13:00,44.1,23.9,30.35,ENE,65,13.0,25.0,30,0.00,,,0.00,meteohub,2013-01-18 05:13:00,
2013-01-17 21:18:00,44.2,23.9,30.35,NNE,33,15.0,25.0,30,0.00,,,0.00,meteohub,2013-01-18 05:18:00,
2013-01-17 21:24:00,44.4,23.7,30.35,NE,40,16.0,25.0,30,0.00,,,0.00,meteohub,2013-01-18 05:24:00,
2013-01-17 21:30:00,44.2,23.7,30.35,NNE,33,19.0,24.0,30,0.00,,,0.00,meteohub,2013-01-18 05:30:00,
2013-01-17 21:35:00,43.9,23.7,30.35,NE,49,18.0,26.0,30,0.00,,,0.00,meteohub,2013-01-18 05:35:00,
2013-01-17 21:40:00,43.9,23.5,30.35,NNE,33,17.0,27.0,30,0.00,,,0.00,meteohub,2013-01-18 05:40:00,
2013-01-17 21:46:00,44.2,23.5,30.35,NE,51,16.0,22.0,30,0.00,,,0.00,meteohub,2013-01-18 05:46:00,
2013-01-17 21:51:00,44.4,23.5,30.34,NE,38,18.0,23.0,30,0.00,,,0.00,meteohub,2013-01-18 05:51:00,
2013-01-17 21:56:00,44.8,23.5,30.34,NNE,23,17.0,27.0,30,0.00,,,0.00,meteohub,2013-01-18 05:56:00,
2013-01-17 22:02:00,44.6,23.5,30.34,NE,56,24.0,27.0,30,0.00,,,0.00,meteohub,2013-01-18 06:02:00,
2013-01-17 22:07:00,44.6,23.4,30.34,NE,34,20.0,28.0,30,0.00,,,0.00,meteohub,2013-01-18 06:07:00,
2013-01-17 22:12:00,44.8,23.4,30.34,NE,44,16.0,28.0,30,0.00,,,0.00,meteohub,2013-01-18 06:12:00,
2013-01-17 22:17:00,44.6,23.4,30.34,NNE,33,15.0,27.0,30,0.00,,,0.00,meteohub,2013-01-18 06:17:00,
2013-01-17 22:22:00,44.4,23.4,30.34,ENE,75,18.0,27.0,30,0.00,,,0.00,meteohub,2013-01-18 06:22:00,
2013-01-17 22:27:00,44.2,23.4,30.34,NE,36,16.0,26.0,30,0.00,,,0.00,meteohub,2013-01-18 06:27:00,
2013-01-17 22:32:00,44.1,23.4,30.34,NE,51,16.0,25.0,30,0.00,,,0.00,meteohub,2013-01-18 06:32:00,
2013-01-17 22:37:00,44.1,23.2,30.34,NNE,30,15.0,25.0,30,0.00,,,0.00,meteohub,2013-01-18 06:37:00,
2013-01-17 22:42:00,44.2,23.2,30.34,NNE,20,14.0,25.0,30,0.00,,,0.00,meteohub,2013-01-18 06:42:00,
2013-01-17 22:47:00,44.2,23.2,30.34,NE,34,15.0,23.0,30,0.00,,,0.00,meteohub,2013-01-18 06:47:00,
2013-01-17 22:53:00,44.2,23.2,30.34,NNE,23,16.0,23.0,30,0.00,,,0.00,meteohub,2013-01-18 06:53:00,
2013-01-17 22:58:00,44.2,23.2,30.34,ENE,63,17.0,23.0,30,0.00,,,0.00,meteohub,2013-01-18 06:58:00,
2013-01-17 23:03:00,44.2,23.2,30.34,NNE,18,20.0,23.0,30,0.00,,,0.00,meteohub,2013-01-18 07:03:00,
2013-01-17 23:09:00,44.4,23.0,30.34,NE,56,18.0,24.0,30,0.00,,,0.00,meteohub,2013-01-18 07:09:00,
2013-01-17 23:14:00,44.2,23.0,30.34,NE,46,11.0,27.0,30,0.00,,,0.00,meteohub,2013-01-18 07:14:00,
2013-01-17 23:19:00,44.2,23.0,30.34,NE,34,12.0,27.0,30,0.00,,,0.00,meteohub,2013-01-18 07:19:00,
2013-01-17 23:25:00,44.4,23.0,30.34,NE,39,15.0,27.0,30,0.00,,,0.00,meteohub,2013-01-18 07:25:00,
2013-01-17 23:30:00,44.8,23.0,30.34,NE,46,11.0,21.0,30,0.00,,,0.00,meteohub,2013-01-18 07:30:00,
2013-01-17 23:35:00,44.8,22.8,30.34,NE,37,16.0,22.0,30,0.00,,,0.00,meteohub,2013-01-18 07:35:00,
2013-01-17 23:40:00,44.4,22.8,30.34,NNE,29,12.0,24.0,30,0.00,,,0.00,meteohub,2013-01-18 07:40:00,
2013-01-17 23:45:00,44.1,22.8,30.34,NE,42,15.0,24.0,30,0.00,,,0.00,meteohub,2013-01-18 07:45:00,
2013-01-17 23:51:00,44.1,22.8,30.34,NNE,25,15.0,23.0,30,0.00,,,0.00,meteohub,2013-01-18 07:51:00,
2013-01-17 23:56:00,44.1,22.8,30.34,NE,46,17.0,23.0,30,0.00,,,0.00,meteohub,2013-01-18 07:56:00,